Chicopee, MA

10:23 AM EDT on April 23, 2017 (GMT -0400)
Westover Air Reserve Base / Metropolitan Airport

Weather History for KCEF - July, 2013

Change the Weather History Date:

Saturday, July 13, 2013

  Actual Average Record
Temperature  
Mean Temperature 71 °F -  
Max Temperature 78 °F 80 °F 91 °F (2012)
Min Temperature 64 °F 59 °F 55 °F (2000)
Cooling Degree Days 6    
Growing Degree Days 21 (Base 50)    
Moisture  
Dew Point 66 °F    
Average Humidity 88    
Maximum Humidity 100    
Minimum Humidity 69    
Precipitation  
Precipitation 0.02 in - - ()
Sea Level Pressure  
Sea Level Pressure 30.27 in    
Wind  
Wind Speed 5 mph (NNE)    
Max Wind Speed 8 mph    
Max Gust Speed -    
Visibility 10 miles    
Events Rain    
Averages and records for this station are not official NWS values.
T = Trace of Precipitation, MM = Missing Value Source: NWS Daily Summary

Daily Weather History Graph

Daily Weather History Graph

Search for Another Location

Airport or City:

Trip Planner

Search our weather history database for the weather conditions in past years. The results will help you decide how hot, cold, wet, or windy it might be!

Date:

Astronomy

Jul. 13, 2013 Rise Set
Actual Time 5:25 AM EDT 8:25 PM EDT
Civil Twilight 4:52 AM EDT 8:59 PM EDT
Nautical Twilight 4:09 AM EDT 9:41 PM EDT
Astronomical Twilight 3:18 AM EDT 10:31 PM EDT
Moon 10:45 AM EDT (7/13) 10:57 PM EDT (7/13)
Length of Visible Light 16h 07m
Length of Day
14h 59m
Waxing Crescent, 25% of the Moon is Illuminated
Jul 13
Waxing Crescent
Jul 15
First Quarter
Jul 22
Full
Jul 29
Last Quarter
Aug 6
New

Hourly Weather History & Observations

Time (EDT) Temp. Dew Point Humidity Pressure Visibility Wind Dir Wind Speed Gust Speed Precip Events Conditions
12:02 AM 68.0 °F 59.0 °F 73% 30.18 in 10.0 mi NE 6.9 mph - N/A   Overcast
12:58 AM 68.4 °F 58.6 °F 71% 30.21 in 10.0 mi NE 6.9 mph - 0.00 in   Overcast
1:58 AM 68.2 °F 57.6 °F 69% 30.21 in 10.0 mi NE 5.8 mph - N/A   Overcast
2:58 AM 68.2 °F 57.9 °F 70% 30.22 in 10.0 mi NE 6.9 mph - N/A   Overcast
3:51 AM 68.0 °F 59.0 °F 73% 30.20 in 10.0 mi ENE 3.5 mph - N/A   Overcast
3:52 AM 68.0 °F 59.0 °F 73% 30.20 in 10.0 mi ENE 3.5 mph - N/A   Light Drizzle
3:58 AM 68.0 °F 58.6 °F 72% 30.22 in 10.0 mi NE 4.6 mph - 0.00 in   Light Drizzle
3:59 AM 68.0 °F 59.0 °F 73% 30.20 in 10.0 mi ENE 4.6 mph - N/A   Overcast
4:43 AM 68.0 °F 59.0 °F 73% 30.21 in 10.0 mi NE 6.9 mph - N/A   Overcast
4:58 AM 67.8 °F 58.8 °F 73% 30.23 in 10.0 mi NE 6.9 mph - 0.00 in   Overcast
4:59 AM 68.0 °F 59.0 °F 73% 30.21 in 10.0 mi NE 6.9 mph - N/A   Overcast
5:53 AM 68.0 °F 60.8 °F 78% 30.24 in 10.0 mi Variable 3.5 mph - N/A   Overcast
5:56 AM 68.0 °F 60.8 °F 78% 30.24 in 10.0 mi NE 4.6 mph - N/A   Overcast
5:58 AM 68.0 °F 60.8 °F 78% 30.26 in 10.0 mi NE 4.6 mph - N/A   Overcast
5:59 AM 68.0 °F 60.8 °F 78% 30.24 in 10.0 mi NE 4.6 mph - N/A   Overcast
6:00 AM 68.0 °F 60.8 °F 78% 30.24 in 10.0 mi NE 3.5 mph - N/A   Overcast
6:04 AM 68.0 °F 60.8 °F 78% 30.24 in 10.0 mi Variable 2.3 mph - N/A   Overcast
6:05 AM 68.0 °F 60.8 °F 78% 30.24 in 10.0 mi Variable 3.5 mph - N/A   Overcast
6:06 AM 68.0 °F 60.8 °F 78% 30.24 in 10.0 mi NNW 4.6 mph - N/A   Overcast
6:11 AM 68.0 °F 60.8 °F 78% 30.24 in 10.0 mi NNW 3.5 mph - N/A   Overcast
6:20 AM 66.2 °F 60.8 °F 83% 30.25 in 10.0 mi Variable 2.3 mph - N/A   Overcast
6:29 AM 68.0 °F 60.8 °F 78% 30.25 in 10.0 mi ENE 5.8 mph - N/A   Light Drizzle
6:42 AM 66.2 °F 62.6 °F 88% 30.25 in 6.0 mi NNE 6.9 mph - N/A Rain Light Rain
6:48 AM 64.4 °F 64.4 °F 100% 30.25 in 7.0 mi NE 6.9 mph - N/A Rain Light Rain
6:58 AM 64.4 °F 63.9 °F 98% 30.27 in 10.0 mi NNE 6.9 mph - 0.00 in   Light Drizzle
7:02 AM 64.4 °F 62.6 °F 94% 30.26 in 10.0 mi NNE 6.9 mph - N/A   Light Drizzle
7:04 AM 64.4 °F 62.6 °F 94% 30.26 in 10.0 mi North 6.9 mph - N/A   Overcast
7:58 AM 64.0 °F 63.7 °F 99% 30.30 in 10.0 mi NNE 5.8 mph - 0.00 in   Overcast
8:42 AM 64.4 °F 64.4 °F 100% 30.29 in 10.0 mi North 5.8 mph - N/A   Overcast
8:46 AM 66.2 °F 64.4 °F 94% 30.28 in 9.0 mi North 5.8 mph - N/A   Light Drizzle
8:58 AM 65.7 °F 65.3 °F 99% 30.30 in 9.0 mi NNE 8.1 mph - 0.00 in   Light Drizzle
9:06 AM 66.2 °F 66.2 °F 100% 30.27 in 7.0 mi NNE 5.8 mph - N/A Rain Light Rain
9:19 AM 66.2 °F 66.2 °F 100% 30.28 in 10.0 mi NNE 5.8 mph - N/A   Overcast
9:22 AM 66.2 °F 66.2 °F 100% 30.28 in 10.0 mi NNE 5.8 mph - N/A   Overcast
9:42 AM 68.0 °F 66.2 °F 94% 30.28 in 10.0 mi NNE 5.8 mph - N/A   Overcast
9:58 AM 67.5 °F 66.9 °F 98% 30.30 in 10.0 mi NNE 4.6 mph - 0.00 in   Overcast
10:01 AM 68.0 °F 66.2 °F 94% 30.28 in 10.0 mi NNE 4.6 mph - N/A   Overcast
10:35 AM 68.0 °F 68.0 °F 100% 30.29 in 10.0 mi North 5.8 mph - N/A   Overcast
10:37 AM 68.0 °F 68.0 °F 100% 30.29 in 10.0 mi North 5.8 mph - N/A Rain Light Rain
10:42 AM 68.0 °F 68.0 °F 100% 30.29 in 10.0 mi NNW 5.8 mph - N/A Rain Light Rain
10:51 AM 68.0 °F 68.0 °F 100% 30.29 in 10.0 mi North 4.6 mph - N/A   Overcast
10:58 AM 68.9 °F 68.2 °F 98% 30.31 in 10.0 mi North 3.5 mph - 0.00 in   Overcast
11:07 AM 69.8 °F 68.0 °F 94% 30.29 in 9.0 mi NNW 2.3 mph - N/A Rain Light Rain
11:14 AM 69.8 °F 68.0 °F 94% 30.29 in 4.0 mi Variable 2.3 mph - N/A Rain Light Rain
11:25 AM 69.8 °F 68.0 °F 94% 30.28 in 4.0 mi North 4.6 mph - N/A Rain Light Rain
11:55 AM 69.8 °F 69.8 °F 100% 30.29 in 5.0 mi NNE 5.8 mph - N/A Rain Light Rain
11:58 AM 69.8 °F 69.4 °F 99% 30.31 in 7.0 mi North 4.6 mph - 0.02 in Rain Light Rain
12:17 PM 69.8 °F 69.8 °F 100% 30.30 in 7.0 mi North 5.8 mph - N/A   Overcast
12:58 PM 71.6 °F 71.2 °F 99% 30.32 in 7.0 mi Calm Calm - 0.00 in   Overcast
1:36 PM 73.4 °F 71.6 °F 94% 30.29 in 10.0 mi Variable 2.3 mph - N/A   Overcast
1:58 PM 75.4 °F 71.1 °F 86% 30.31 in 10.0 mi ESE 5.8 mph - N/A   Overcast
2:35 PM 77.0 °F 71.6 °F 83% 30.29 in 10.0 mi Variable 2.3 mph - N/A   Overcast
2:58 PM 76.8 °F 71.2 °F 83% 30.31 in 10.0 mi Calm Calm - N/A   Overcast
3:58 PM 76.8 °F 73.0 °F 88% 30.30 in 10.0 mi NNW 6.9 mph - N/A   Overcast
4:24 PM 78.8 °F 73.4 °F 83% 30.28 in 10.0 mi North 4.6 mph - N/A   Mostly Cloudy
4:28 PM 78.8 °F 73.4 °F 83% 30.28 in 10.0 mi North 5.8 mph - N/A   Mostly Cloudy
4:58 PM 78.8 °F 72.7 °F 81% 30.29 in 10.0 mi North 3.5 mph - N/A   Mostly Cloudy
5:58 PM 78.3 °F 72.9 °F 83% 30.28 in 10.0 mi NW 3.5 mph - N/A   Mostly Cloudy
6:33 PM 78.8 °F 73.4 °F 83% 30.27 in 10.0 mi NE 3.5 mph - N/A   Mostly Cloudy
6:58 PM 77.7 °F 73.2 °F 86% 30.29 in 10.0 mi NNW 3.5 mph - N/A   Mostly Cloudy
7:02 PM 77.0 °F 73.4 °F 89% 30.27 in 10.0 mi North 4.6 mph - N/A   Overcast
7:24 PM 77.0 °F 73.4 °F 89% 30.28 in 10.0 mi NNW 5.8 mph - N/A   Overcast
7:37 PM 75.2 °F 73.4 °F 94% 30.28 in 10.0 mi North 6.9 mph - N/A   Overcast
7:58 PM 75.7 °F 73.2 °F 92% 30.30 in 10.0 mi NNE 4.6 mph - N/A   Mostly Cloudy
8:10 PM 75.2 °F 73.4 °F 94% 30.28 in 10.0 mi NNE 5.8 mph - N/A   Mostly Cloudy
8:25 PM 75.2 °F 73.4 °F 94% 30.29 in 10.0 mi NNE 5.8 mph - N/A   Overcast
8:28 PM 75.2 °F 73.4 °F 94% 30.29 in 10.0 mi NNE 5.8 mph - N/A   Overcast
8:43 PM 73.4 °F 73.4 °F 100% 30.29 in 10.0 mi NNE 4.6 mph - N/A   Overcast
8:58 PM 73.6 °F 73.4 °F 99% 30.31 in 10.0 mi NNE 4.6 mph - N/A   Overcast
9:01 PM 73.4 °F 73.4 °F 100% 30.29 in 10.0 mi NNE 4.6 mph - N/A   Overcast
9:58 PM 73.9 °F 73.8 °F 99% 30.32 in 10.0 mi NE 2.3 mph - N/A   Overcast